This is the latest recevied weather packets stored in our database for station/object IZ8QAD-11. If no packets are shown the sender has not sent any weather packets the latest 10 day(s).
| Time | Temp. | Humidity | Pressure | Rain* | Wind** | Luminosity | Snow |
|---|---|---|---|---|---|---|---|
| 1778226284 | 20.56° C | 63% | 965.3 hPa | - | - | - | - |
| 1778215479 | 14.44° C | 65% | 964.5 hPa | - | - | - | - |
| 1778211878 | 13.89° C | 65% | 963.9 hPa | - | - | - | - |
| 1778208277 | 14.44° C | 64% | 963.9 hPa | - | - | - | - |
| 1778204676 | 15.56° C | 64% | 964 hPa | - | - | - | - |
| 1778201075 | 16.11° C | 62% | 963.9 hPa | - | - | - | - |
| 1778197474 | 16.67° C | 61% | 964.4 hPa | - | - | - | - |
| 1778193874 | 17.22° C | 60% | 964.5 hPa | - | - | - | - |
| 1778190273 | 17.78° C | 60% | 964.5 hPa | - | - | - | - |
| 1778186672 | 19.44° C | 56% | 964.9 hPa | - | - | - | - |
| 1778183071 | 20.56° C | 57% | 964.7 hPa | - | - | - | - |
| 1778179479 | 20.56° C | 61% | 964.3 hPa | - | - | - | - |
| 1778175869 | 21.67° C | 60% | 964.1 hPa | - | - | - | - |
| 1778172269 | 25° C | 51% | 964 hPa | - | - | - | - |
| 1778168668 | 27.78° C | 47% | 964.2 hPa | - | - | - | - |
| 1778165067 | 31.11° C | 46% | 964.5 hPa | - | - | - | - |
| 1778161466 | 33.33° C | 47% | 965.1 hPa | - | - | - | - |
| 1778157865 | 32.78° C | 50% | 965.8 hPa | - | - | - | - |
| 1778154265 | 33.33° C | 58% | 966.4 hPa | - | - | - | - |
| 1778150664 | 31.11° C | 63% | 967 hPa | - | - | - | - |
| 1778147072 | 31.11° C | 72% | 967.1 hPa | - | - | - | - |
| 1778143471 | 25.56° C | 76% | 967.4 hPa | - | - | - | - |
| 1778139861 | 27.22° C | 78% | 967.3 hPa | - | - | - | - |
| 1778136261 | 20.56° C | 81% | 967.2 hPa | - | - | - | - |
| 1778125458 | 14.44° C | 79% | 966.4 hPa | - | - | - | - |
* Rain since midnight (hover to see other rain measurements)
** Current wind speed in m/s (hover to see current wind gust speed)